FLOCK 3P-39 (42038 NORAD) Tracking and Keplerian Element Data

This shows tracking and keplerian element data for the satellite.

Feedback or suggestion? Click here.




ElementValue
Catalog42038
NameFLOCK 3P-39
Epoch Orbit5533
Epoch Day45.59518178
Epoch Year2018
RAAN111.1824
Inclination97.4652
Eccentricity0.0009506
Argument of Perigee88.6631
Mean Anonmoly271.5695
Mean Motion15.23916212
Decay Rate1.678E-05
L11 42038U 17008CU 18045.59518178 .00001678 00000-0 72363-4 0 9992
L22 42038 97.4652 111.1824 0009506 88.6631 271.5695 15.23916212 55335

Live tracking and technical data element details for FLOCK 3P-39 (NORAD 42038). FLOCK 3P-39 can be tracked NOW for your location showing map with azimuth and elevation plus other details from your city location.

Track the satellite on the map from your city or location and see movement details for azimuth, elevation, latitude, longitude, range, height, and movement on the map or in text.







IsCatalogInMostPopularTable: catalog: 42038, numindb: 85
Update: records affected: 1



GetName: 42038 FLOCK 3P-39

Hit Count: updated at: Fri, 20 Jul 2018 07:06:51 GMT